Regional Weather Roundup
Issued by NWS New Orleans/Baton Rouge, LA

Home | Current Version | Previous Version | Graphics & Text | Print | Product List | Glossary On
Versions: 1 2 3 4 5 6 7 8 9 10 11 12 13 14 15 16 17 18 19 20 21 22 23 24 25 26 27 28 29 30 31 32 33 34 35 36 37 38 39 40 41 42 43 44 45 46 47 48 49 50
448
ASUS44 KLIX 291305
RWRLIX
NEW ORLEANS REGIONAL WEATHER ROUNDUP
NATIONAL WEATHER SERVICE NEW ORLEANS LA
700 AM CST THU JAN 29 2015

NOTE: "FAIR" INDICATES FEW OR NO CLOUDS BELOW 12,000 FEET WITH NO
      SIGNIFICANT WEATHER AND/OR OBSTRUCTIONS TO VISIBILITY.
      SKY/WX - SKY CONDITION AND SIGNIFICANT WEATHER.
      TMP - AIR TEMPERATURE.     DP    - DEWPOINT TEMPERATURE.
      RH  - RELATIVE HUMIDITY.   PRES  - PRESSURE.
      HI  - HEAT INDEX.          WCI   - WIND CHILL INDEX.

*  THESE STATIONS ARE NOT NWS OR FAA STATIONS AND ARE NOT UNDER
   NWS QUALITY CONTROL.

LAZ038-040-048-061>063-065>067-069-291400-
SOUTHEAST LOUISIANA

CITY           SKY/WX    TMP DP  RH WIND       PRES   REMARKS
N.O. AUDUBON     N/A     53  50  91 MISG        N/A
N.O. INTL ARPT PTCLDY    50  48  93 SE7       30.22S
N.O. LAKEFRONT CLEAR     52  48  86 SE10      30.23S
N.O. DOWNTOWN* NOT AVBL
SLIDELL        CLEAR     37  34  89 CALM      30.23S
BATON ROUGE    CLEAR     43  41  93 NE3       30.21R FOG
BOOTHVILLE     CLEAR     50  47  89 SE6       30.26R
BELLE CHASSE   MOCLDY    41  38  89 SE3       30.23S FOG
BOGALUSA*        N/A     36  33  90 N3        30.25R
GALLIANO*      MOSUNNY   39  38  99 MISG      30.23F FOG
NEW ROADS*     PTSUNNY   42  41  97 N3        30.22R FOG
GONZALES*      FOG       47  47 100 CALM      30.21R VSB<1/4
HAMMOND*       CLEAR     41  37  87 CALM      30.23S
HOUMA*         PTCLDY    46  46 100 SE3       30.22F FOG
PORT FOURCHON* SUNNY     63  59  88 SE7       30.27S

$$

MSZ070-080>082-291400-
SOUTHERN MISSISSIPPI

CITY           SKY/WX    TMP DP  RH WIND       PRES   REMARKS
MCCOMB         CLEAR     43  40  89 CALM      30.22R FOG
GULFPORT       CLEAR     41  39  93 CALM      30.24F
BILOXI         CLEAR     45  45 100 E2        30.25S
PASCAGOULA     CLEAR     37  36  96 CALM      30.26F
STENNIS ARPT*  CLEAR     37  34  87 CALM      30.26

$$

COASTAL OBSERVATIONS
LAKE AND NEARSHORE STATIONS

STATION/POSITION TIME  TEMP    WIND        PRES    WAVE
                       AIR SEA DIR/SP/G            HT/PER
                 (UTC) (F)     (DEG/KT/KT) (MB)    (FT/S)
PASCAGOULA       1300   55     130/  3/  7 1024.2
WAVELAND YACHT   1300   50     320/  2/  2 1023.4
GRAND ISLE       1300   62 62  150/  4/  5 1024.5
SOUTHWEST PASS   1300   51 45  120/  9/ 10 1024.8
NEW CANAL        1300   51 53  150/  4/  6 1023.9
SHELL BEACH      1300   53 56  140/  6/  6 1024.1

OFFSHORE STATIONS

STATION/POSITION TIME  TEMP    WIND        PRES    WAVE
                       AIR SEA DIR/SP/G            HT/PER
                 (UTC) (F)     (DEG/KT/KT) (MB)    (FT/S)
64 S DAUPHIN ISL 1218   64 68  150/  8/ 10 1025.6    2/ 4

$$




USA.gov is the U.S. government's official web portal to all federal, state and local government web resources and services.